Indianapolis Mount Comfort, IN

11:45 PM EST on December 12, 2019 (GMT -0500)
Mount Comfort

Weather History for KMQJ - June, 2019

Change the Weather History Date:

Wednesday, June 12, 2019

  Actual Average (WUND) Record (WUND)
Temperature  
Mean Temperature 66 °F -  
Max Temperature 77 °F - - (-1)
Min Temperature 55 °F - - (-1)
Cooling Degree Days 1    
Growing Degree Days 16 (Base 50)    
Moisture  
Dew Point 56 °F    
Average Humidity 72    
Maximum Humidity 100    
Minimum Humidity 47    
Precipitation  
Precipitation 0.00 in - - ()
Sea Level Pressure  
Sea Level Pressure 29.95 in    
Wind  
Wind Speed 4 mph (South)    
Max Wind Speed 20 mph    
Max Gust Speed 31 mph    
Visibility 10 miles    
Events      
Averages and records for this station are not official NWS values.
T = Trace of Precipitation, MM = Missing Value Source: NWS Daily Summary

Daily Weather History Graph

Daily Weather History Graph

Search for Another Location

Airport or City:

Astronomy

Jun. 12, 2019 Rise Set
Actual Time 6:14 AM EDT 9:12 PM EDT
Civil Twilight 5:42 AM EDT 9:44 PM EDT
Nautical Twilight 5:00 AM EDT 10:26 PM EDT
Astronomical Twilight 4:13 AM EDT 11:14 PM EDT
Moon 4:19 PM EDT (6/12) 3:28 AM EDT (6/12)
Length of Visible Light 16h 02m
Length of Day
14h 57m
Waxing Gibbous, 76% of the Moon is Illuminated
Jun 12
Waxing Gibbous
Jun 17
Full
Jun 25
Last Quarter
Jul 2
New
Jul 9
First Quarter

Hourly Weather History & Observations

Time (EDT) Temp. Dew Point Humidity Pressure Visibility Wind Dir Wind Speed Gust Speed Precip Events Conditions
12:06 AM 60.8 °F 57.2 °F 88% 30.11 in 10.0 mi Calm Calm - N/A   Clear
12:24 AM 59.0 °F 57.2 °F 94% 30.11 in 10.0 mi Calm Calm - N/A   Clear
12:43 AM 59.0 °F 55.4 °F 88% 30.11 in 10.0 mi Calm Calm - N/A   Clear
1:03 AM 59.0 °F 57.2 °F 94% 30.11 in 10.0 mi Calm Calm - N/A   Clear
1:27 AM 57.2 °F 57.2 °F 100% 30.10 in 10.0 mi South 3.5 mph - N/A   Clear
1:44 AM 55.4 °F 55.4 °F 100% 30.10 in 10.0 mi SSE 3.5 mph - N/A   Clear
2:04 AM 57.2 °F 55.4 °F 94% 30.09 in 10.0 mi SSE 3.5 mph - N/A   Clear
2:25 AM 57.2 °F 55.4 °F 94% 30.09 in 10.0 mi SSE 4.6 mph - N/A   Clear
2:46 AM 57.2 °F 53.6 °F 88% 30.09 in 10.0 mi SSE 4.6 mph - N/A   Clear
3:03 AM 57.2 °F 53.6 °F 88% 30.08 in 10.0 mi SSE 3.5 mph - N/A   Clear
3:23 AM 57.2 °F 53.6 °F 88% 30.08 in 10.0 mi SSE 4.6 mph - N/A   Clear
3:43 AM 55.4 °F 53.6 °F 94% 30.07 in 10.0 mi SSE 4.6 mph - N/A   Clear
4:04 AM 55.4 °F 55.4 °F 100% 30.07 in 10.0 mi Calm Calm - N/A   Clear
4:25 AM 55.4 °F 55.4 °F 100% 30.07 in 10.0 mi SSE 3.5 mph - N/A   Clear
4:44 AM 55.4 °F 53.6 °F 94% 30.06 in 10.0 mi SE 4.6 mph - N/A   Clear
5:05 AM 55.4 °F 53.6 °F 94% 30.06 in 10.0 mi SSE 4.6 mph - N/A   Clear
5:23 AM 55.4 °F 55.4 °F 100% 30.06 in 10.0 mi SSE 3.5 mph - N/A   Clear
5:43 AM 55.4 °F 53.6 °F 94% 30.06 in 10.0 mi Calm Calm - N/A   Clear
6:03 AM 55.4 °F 53.6 °F 94% 30.06 in 10.0 mi Calm Calm - N/A   Clear
6:23 AM 55.4 °F 53.6 °F 94% 30.06 in 10.0 mi Calm Calm - N/A   Clear
6:46 AM 55.4 °F 53.6 °F 94% 30.06 in 10.0 mi Calm Calm - N/A   Clear
7:03 AM 55.4 °F 53.6 °F 94% 30.06 in 10.0 mi Calm Calm - N/A   Clear
7:23 AM 55.4 °F 55.4 °F 100% 30.06 in 10.0 mi Calm Calm - N/A   Clear
7:45 AM 59.0 °F 57.2 °F 94% 30.05 in 10.0 mi Calm Calm - N/A   Clear
8:08 AM 60.8 °F 57.2 °F 88% 30.04 in 10.0 mi ESE 4.6 mph - N/A   Clear
8:26 AM 62.6 °F 57.2 °F 82% 30.03 in 10.0 mi ESE 4.6 mph - N/A   Clear
8:43 AM 64.4 °F 57.2 °F 77% 30.03 in 10.0 mi ESE 5.8 mph - N/A   Clear
9:03 AM 66.2 °F 55.4 °F 68% 30.02 in 10.0 mi SE 3.5 mph - N/A   Clear
9:23 AM 68.0 °F 57.2 °F 68% 30.02 in 10.0 mi SE 3.5 mph - N/A   Clear
9:43 AM 68.0 °F 57.2 °F 68% 30.01 in 10.0 mi East 5.8 mph - N/A   Clear
10:04 AM 69.8 °F 57.2 °F 64% 30.01 in 10.0 mi ESE 5.8 mph - N/A   Clear
10:23 AM 69.8 °F 55.4 °F 60% 30.00 in 10.0 mi SSE 9.2 mph - N/A   Clear
10:49 AM 71.6 °F 55.4 °F 57% 29.99 in 10.0 mi SE 9.2 mph 16.1 mph N/A   Clear
11:08 AM 71.6 °F 57.2 °F 60% 29.98 in 10.0 mi ESE 8.1 mph - N/A   Clear
11:25 AM 71.6 °F 57.2 °F 60% 29.97 in 10.0 mi SE 8.1 mph - N/A   Scattered Clouds
11:45 AM 71.6 °F 55.4 °F 57% 29.96 in 10.0 mi SSE 10.4 mph - N/A   Clear
12:04 PM 71.6 °F 55.4 °F 57% 29.95 in 10.0 mi SSE 11.5 mph 16.1 mph N/A   Clear
12:27 PM 73.4 °F 55.4 °F 53% 29.94 in 10.0 mi SSE 6.9 mph - N/A   Clear
12:44 PM 73.4 °F 55.4 °F 53% 29.93 in 10.0 mi SSW 5.8 mph - N/A   Clear
1:05 PM 71.6 °F 55.4 °F 57% 29.92 in 10.0 mi SE 6.9 mph - N/A   Scattered Clouds
1:28 PM 73.4 °F 55.4 °F 53% 29.92 in 10.0 mi SSE 9.2 mph - N/A   Scattered Clouds
1:47 PM 73.4 °F 55.4 °F 53% 29.91 in 10.0 mi South 8.1 mph - N/A   Clear
2:07 PM 75.2 °F 55.4 °F 50% 29.90 in 10.0 mi Calm Calm - N/A   Clear
2:27 PM 75.2 °F 57.2 °F 53% 29.89 in 10.0 mi WSW 5.8 mph - N/A   Clear
2:47 PM 77.0 °F 57.2 °F 50% 29.89 in 10.0 mi SSW 9.2 mph - N/A   Clear
3:05 PM 77.0 °F 57.2 °F 50% 29.88 in 10.0 mi SW 5.8 mph - N/A   Clear
3:23 PM 77.0 °F 55.4 °F 47% 29.87 in 10.0 mi SSW 9.2 mph - N/A   Clear
3:43 PM 77.0 °F 57.2 °F 50% 29.86 in 10.0 mi SE 4.6 mph - N/A   Clear
4:03 PM 77.0 °F 55.4 °F 47% 29.85 in 10.0 mi South 9.2 mph - N/A   Scattered Clouds
4:23 PM 77.0 °F 55.4 °F 47% 29.84 in 10.0 mi Calm Calm - N/A   Clear
4:44 PM 77.0 °F 55.4 °F 47% 29.83 in 10.0 mi SW 5.8 mph - N/A   Clear
5:05 PM 75.2 °F 55.4 °F 50% 29.82 in 10.0 mi Calm Calm - N/A   Clear
5:29 PM 75.2 °F 53.6 °F 47% 29.82 in 10.0 mi South 5.8 mph - N/A   Clear
5:50 PM 75.2 °F 55.4 °F 50% 29.83 in 10.0 mi SW 9.2 mph - N/A   Clear
6:09 PM 73.4 °F 57.2 °F 57% 29.82 in 10.0 mi WSW 9.2 mph - N/A   Clear
6:27 PM 73.4 °F 55.4 °F 53% 29.82 in 10.0 mi WSW 6.9 mph - N/A   Clear
6:47 PM 71.6 °F 57.2 °F 60% 29.81 in 10.0 mi West 8.1 mph - N/A   Clear
7:04 PM 71.6 °F 55.4 °F 57% 29.81 in 10.0 mi WSW 10.4 mph - N/A   Scattered Clouds
7:23 PM 71.6 °F 53.6 °F 53% 29.81 in 10.0 mi WSW 9.2 mph - N/A   Scattered Clouds
7:44 PM 69.8 °F 55.4 °F 60% 29.81 in 10.0 mi West 10.4 mph - N/A   Clear
8:03 PM 69.8 °F 55.4 °F 60% 29.81 in 10.0 mi West 12.7 mph - N/A   Clear
8:23 PM 69.8 °F 55.4 °F 60% 29.80 in 10.0 mi West 9.2 mph - N/A   Clear
8:43 PM 68.0 °F 57.2 °F 68% 29.79 in 10.0 mi West 9.2 mph - N/A   Clear
9:06 PM 68.0 °F 55.4 °F 64% 29.79 in 10.0 mi West 6.9 mph - N/A   Scattered Clouds
9:25 PM 66.2 °F 57.2 °F 73% 29.79 in 10.0 mi West 3.5 mph - N/A   Clear
9:45 PM 64.4 °F 57.2 °F 77% 29.79 in 10.0 mi West 8.1 mph - N/A   Clear
10:05 PM 64.4 °F 55.4 °F 73% 29.79 in 10.0 mi West 8.1 mph - N/A   Clear
10:23 PM 66.2 °F 55.4 °F 68% 29.79 in 10.0 mi West 8.1 mph - N/A   Clear
10:44 PM 62.6 °F 53.6 °F 72% 29.82 in 10.0 mi West 19.6 mph 31.1 mph N/A   Clear
11:05 PM 60.8 °F 55.4 °F 82% 29.83 in 10.0 mi WNW 13.8 mph 20.7 mph N/A   Clear
11:24 PM 60.8 °F 55.4 °F 82% 29.83 in 10.0 mi WNW 10.4 mph - N/A   Mostly Cloudy
11:44 PM 60.8 °F 55.4 °F 82% 29.82 in 10.0 mi WNW 13.8 mph - N/A   Overcast